| time (UTC) | temp F | wind direction | speed MPH | gust MPH | rain 1hr in | rain 24hr in | rain mn in | humidity % | barometer mb |
| 20260507033838 | 60 | 218 | 1.0 | 6.0 | 0.00 | 0.00 | 0.00 | 76 | 1009.0 |
| 20260507032937 | 60 | 250 | 1.0 | 5.0 | 0.00 | 0.00 | 0.00 | 76 | 1009.0 |
| 20260507032037 | 60 | 239 | 1.0 | 4.0 | 0.00 | 0.00 | 0.00 | 75 | 1009.1 |
| 20260507031136 | 61 | 230 | 1.0 | 5.0 | 0.00 | 0.00 | 0.00 | 75 | 1009.1 |
| 20260507030237 | 61 | 212 | 0.0 | 3.0 | 0.00 | 0.00 | 0.00 | 75 | 1009.0 |
| 20260507025336 | 61 | 235 | 1.0 | 4.0 | 0.00 | 0.00 | 0.00 | 75 | 1008.9 |
| 20260507024436 | 60 | 217 | 2.0 | 5.0 | 0.00 | 0.00 | 0.00 | 75 | 1008.9 |
| 20260507023536 | 60 | 204 | 2.0 | 6.0 | 0.00 | 0.00 | 0.00 | 76 | 1008.9 |
| 20260507022657 | 60 | 200 | 2.0 | 6.0 | 0.00 | 0.00 | 0.00 | 75 | 1008.7 |
| 20260507021736 | 60 | 200 | 3.0 | 6.0 | 0.00 | 0.00 | 0.00 | 75 | 1008.7 |
| 20260507020837 | 61 | 212 | 3.0 | 9.0 | 0.00 | 0.00 | 0.00 | 75 | 1008.8 |
| 20260507015957 | 61 | 212 | 3.0 | 7.0 | 0.00 | 0.00 | 0.00 | 75 | 1008.8 |
| 20260507015036 | 61 | 208 | 3.0 | 9.0 | 0.00 | 0.00 | 0.00 | 74 | 1008.9 |
| 20260507014136 | 61 | 200 | 2.0 | 7.0 | 0.00 | 0.00 | 0.00 | 74 | 1008.9 |
| 20260507013257 | 61 | 204 | 2.0 | 10.0 | 0.00 | 0.00 | 0.00 | 74 | 1009.0 |
| 20260507012336 | 61 | 209 | 3.0 | 10.0 | 0.00 | 0.00 | 0.00 | 74 | 1009.0 |
| 20260507011436 | 61 | 209 | 3.0 | 10.0 | 0.00 | 0.00 | 0.00 | 73 | 1009.1 |
| 20260507010557 | 61 | 207 | 0.0 | 9.0 | 0.00 | 0.00 | 0.00 | 73 | 1009.3 |
| 20260507005636 | 61 | 191 | 2.0 | 4.0 | 0.00 | 0.00 | 0.00 | 73 | 1009.4 |
| 20260507004736 | 61 | 200 | 2.0 | 8.0 | 0.00 | 0.00 | 0.00 | 73 | 1009.5 |
| 20260507003836 | 61 | 205 | 3.0 | 6.0 | 0.00 | 0.00 | 0.00 | 72 | 1009.5 |
| 20260507002936 | 61 | 206 | 2.0 | 7.0 | 0.00 | 0.00 | 0.00 | 72 | 1009.4 |
| 20260507002036 | 61 | 200 | 3.0 | 6.0 | 0.00 | 0.00 | 0.00 | 72 | 1009.5 |
| 20260507001136 | 62 | 207 | 3.0 | 9.0 | 0.00 | 0.00 | 0.00 | 72 | 1009.5 |
| 20260507000236 | 62 | 200 | 3.0 | 8.0 | 0.00 | 0.00 | 0.00 | 72 | 1009.6 |
| 20260506235336 | 62 | 215 | 3.0 | 7.0 | 0.00 | 0.00 | 0.00 | 72 | 1009.7 |
| 20260506234457 | 62 | 219 | 3.0 | 9.0 | 0.00 | 0.00 | 0.00 | 72 | 1009.7 |
| 20260506233536 | 62 | 224 | 3.0 | 7.0 | 0.00 | 0.00 | 0.00 | 72 | 1009.7 |
| 20260506232636 | 62 | 228 | 3.0 | 8.0 | 0.00 | 0.00 | 0.00 | 72 | 1009.7 |
| 20260506231757 | 62 | 231 | 2.0 | 7.0 | 0.00 | 0.00 | 0.00 | 72 | 1009.8 |
| 20260506230857 | 62 | 237 | 2.0 | 9.0 | 0.00 | 0.00 | 0.00 | 72 | 1009.8 |
| 20260506225936 | 63 | 242 | 2.0 | 5.0 | 0.00 | 0.00 | 0.00 | 71 | 1009.9 |
| 20260506225036 | 63 | 243 | 3.0 | 7.0 | 0.00 | 0.00 | 0.00 | 70 | 1009.8 |
| 20260506224157 | 63 | 236 | 4.0 | 8.0 | 0.00 | 0.00 | 0.00 | 69 | 1009.8 |
| 20260506223236 | 63 | 224 | 4.0 | 9.0 | 0.00 | 0.00 | 0.00 | 68 | 1010.0 |
| 20260506222357 | 63 | 221 | 3.0 | 7.0 | 0.00 | 0.00 | 0.00 | 65 | 1009.9 |
| 20260506221436 | 64 | 219 | 3.0 | 6.0 | 0.00 | 0.00 | 0.00 | 64 | 1009.8 |
| 20260506220536 | 64 | 220 | 3.0 | 8.0 | 0.00 | 0.00 | 0.00 | 62 | 1009.7 |
| 20260506215635 | 64 | 226 | 3.0 | 7.0 | 0.00 | 0.00 | 0.00 | 61 | 1009.7 |
| 20260506214757 | 64 | 228 | 4.0 | 7.0 | 0.00 | 0.00 | 0.00 | 60 | 1009.7 |
| 20260506213835 | 65 | 218 | 3.0 | 7.0 | 0.00 | 0.00 | 0.00 | 60 | 1009.7 |
| 20260506212936 | 65 | 230 | 3.0 | 6.0 | 0.00 | 0.00 | 0.00 | 58 | 1009.6 |
| 20260506212035 | 66 | 234 | 5.0 | 8.0 | 0.00 | 0.00 | 0.00 | 57 | 1009.4 |
| 20260506211135 | 66 | 247 | 6.0 | 11.0 | 0.00 | 0.00 | 0.00 | 56 | 1009.3 |
| 20260506210236 | 66 | 245 | 5.0 | 11.0 | 0.00 | 0.00 | 0.00 | 55 | 1009.3 |
| 20260506205336 | 66 | 261 | 4.0 | 13.0 | 0.00 | 0.00 | 0.00 | 55 | 1009.1 |
| 20260506204456 | 67 | 269 | 3.0 | 11.0 | 0.00 | 0.00 | 0.00 | 54 | 1009.0 |
| 20260506203535 | 67 | 265 | 4.0 | 8.0 | 0.00 | 0.00 | 0.00 | 54 | 1008.9 |
| 20260506202656 | 67 | 258 | 4.0 | 9.0 | 0.00 | 0.00 | 0.00 | 54 | 1008.8 |
| 20260506201735 | 68 | 246 | 4.0 | 8.0 | 0.00 | 0.00 | 0.00 | 53 | 1008.9 |
| 20260506200835 | 68 | 240 | 4.0 | 7.0 | 0.00 | 0.00 | 0.00 | 53 | 1008.9 |
| 20260506195935 | 69 | 253 | 6.0 | 12.0 | 0.00 | 0.00 | 0.00 | 51 | 1008.8 |
| 20260506195056 | 69 | 275 | 7.0 | 14.0 | 0.00 | 0.00 | 0.00 | 51 | 1008.7 |
| 20260506194135 | 69 | 266 | 5.0 | 13.0 | 0.00 | 0.00 | 0.00 | 50 | 1008.5 |
| 20260506193235 | 70 | 267 | 5.0 | 10.0 | 0.00 | 0.00 | 0.00 | 49 | 1008.5 |
| 20260506192335 | 70 | 262 | 6.0 | 12.0 | 0.00 | 0.00 | 0.00 | 50 | 1008.3 |
| 20260506191435 | 70 | 266 | 6.0 | 12.0 | 0.00 | 0.00 | 0.00 | 49 | 1008.3 |
| 20260506190556 | 71 | 252 | 6.0 | 12.0 | 0.00 | 0.00 | 0.00 | 48 | 1008.2 |
| 20260506185656 | 72 | 254 | 6.0 | 13.0 | 0.00 | 0.00 | 0.00 | 47 | 1008.1 |
| 20260506184735 | 72 | 257 | 6.0 | 14.0 | 0.00 | 0.00 | 0.00 | 47 | 1008.0 |
| 20260506183835 | 73 | 254 | 6.0 | 15.0 | 0.00 | 0.00 | 0.00 | 46 | 1008.1 |
| 20260506182935 | 73 | 272 | 7.0 | 14.0 | 0.00 | 0.00 | 0.00 | 46 | 1008.1 |
| 20260506182035 | 73 | 261 | 7.0 | 15.0 | 0.00 | 0.00 | 0.00 | 45 | 1008.1 |
| 20260506181135 | 74 | 244 | 7.0 | 14.0 | 0.00 | 0.00 | 0.00 | 43 | 1007.9 |
| 20260506180256 | 74 | 247 | 7.0 | 12.0 | 0.00 | 0.00 | 0.00 | 42 | 1007.9 |
| 20260506175356 | 74 | 243 | 6.0 | 15.0 | 0.00 | 0.00 | 0.00 | 41 | 1008.0 |
| 20260506174456 | 75 | 239 | 6.0 | 12.0 | 0.00 | 0.00 | 0.00 | 41 | 1008.0 |
| 20260506173535 | 75 | 240 | 8.0 | 16.0 | 0.00 | 0.00 | 0.00 | 41 | 1008.1 |
| 20260506172656 | 75 | 244 | 9.0 | 16.0 | 0.00 | 0.00 | 0.00 | 41 | 1008.0 |
| 20260506171735 | 75 | 243 | 7.0 | 16.0 | 0.00 | 0.00 | 0.00 | 41 | 1008.2 |
| 20260506170835 | 76 | 228 | 6.0 | 15.0 | 0.00 | 0.00 | 0.00 | 40 | 1008.2 |
| 20260506165935 | 76 | 221 | 7.0 | 15.0 | 0.00 | 0.00 | 0.00 | 40 | 1008.1 |
| 20260506165035 | 76 | 231 | 6.0 | 16.0 | 0.00 | 0.00 | 0.00 | 40 | 1008.1 |
| 20260506164135 | 77 | 228 | 5.0 | 11.0 | 0.00 | 0.00 | 0.00 | 39 | 1008.2 |
| 20260506163235 | 77 | 211 | 4.0 | 13.0 | 0.00 | 0.00 | 0.00 | 38 | 1008.2 |
| 20260506162335 | 78 | 208 | 3.0 | 10.0 | 0.00 | 0.00 | 0.00 | 36 | 1008.2 |
| 20260506161435 | 77 | 190 | 2.0 | 8.0 | 0.00 | 0.00 | 0.00 | 34 | 1008.3 |
| 20260506160557 | 77 | 155 | 3.0 | 9.0 | 0.00 | 0.00 | 0.00 | 35 | 1008.3 |
| 20260506155656 | 77 | 162 | 3.0 | 9.0 | 0.00 | 0.00 | 0.00 | 34 | 1008.3 |
| 20260506154735 | 77 | 179 | 2.0 | 8.0 | 0.00 | 0.00 | 0.00 | 34 | 1008.4 |
| 20260506153834 | 78 | 269 | 3.0 | 6.0 | 0.00 | 0.00 | 0.00 | 35 | 1008.4 |
| 20260506152935 | 77 | 254 | 3.0 | 7.0 | 0.00 | 0.00 | 0.00 | 36 | 1008.6 |
| 20260506152034 | 77 | 233 | 3.0 | 11.0 | 0.00 | 0.00 | 0.00 | 36 | 1008.7 |
| 20260506151135 | 77 | 186 | 3.0 | 9.0 | 0.00 | 0.00 | 0.00 | 35 | 1008.8 |
| 20260506150234 | 77 | 219 | 3.0 | 9.0 | 0.00 | 0.00 | 0.00 | 36 | 1008.9 |
| 20260506145334 | 76 | 236 | 2.0 | 10.0 | 0.00 | 0.00 | 0.00 | 36 | 1009.2 |
| 20260506144434 | 76 | 96 | 3.0 | 8.0 | 0.00 | 0.00 | 0.00 | 36 | 1009.4 |
| 20260506143555 | 75 | 106 | 3.0 | 7.0 | 0.00 | 0.00 | 0.00 | 36 | 1009.5 |
| 20260506142634 | 76 | 84 | 2.0 | 8.0 | 0.00 | 0.00 | 0.00 | 35 | 1009.7 |
| 20260506141734 | 75 | 52 | 2.0 | 5.0 | 0.00 | 0.00 | 0.00 | 36 | 1009.8 |
| 20260506140855 | 75 | 231 | 4.0 | 9.0 | 0.00 | 0.00 | 0.00 | 36 | 1009.9 |
| 20260506135934 | 76 | 217 | 3.0 | 8.0 | 0.00 | 0.00 | 0.00 | 36 | 1010.0 |
| 20260506135055 | 75 | 150 | 2.0 | 9.0 | 0.00 | 0.00 | 0.00 | 36 | 1010.0 |
| 20260506134134 | 74 | 258 | 4.0 | 11.0 | 0.00 | 0.00 | 0.00 | 37 | 1010.1 |
| 20260506133234 | 74 | 250 | 3.0 | 9.0 | 0.00 | 0.00 | 0.00 | 37 | 1010.2 |
| 20260506132334 | 75 | 226 | 3.0 | 12.0 | 0.00 | 0.00 | 0.00 | 36 | 1010.3 |
| 20260506131455 | 75 | 324 | 2.0 | 6.0 | 0.00 | 0.00 | 0.00 | 37 | 1010.4 |
| 20260506130535 | 75 | 28 | 1.0 | 10.0 | 0.00 | 0.00 | 0.00 | 36 | 1010.5 |
| 20260506125634 | 74 | 60 | 2.0 | 3.0 | 0.00 | 0.00 | 0.00 | 37 | 1010.5 |
| 20260506124755 | 73 | 101 | 2.0 | 8.0 | 0.00 | 0.00 | 0.00 | 37 | 1010.6 |
| 20260506123834 | 73 | 319 | 3.0 | 8.0 | 0.00 | 0.00 | 0.00 | 38 | 1010.7 |
| 20260506122934 | 73 | 331 | 4.0 | 8.0 | 0.00 | 0.00 | 0.00 | 38 | 1010.8 |
| 20260506122034 | 73 | 332 | 3.0 | 11.0 | 0.00 | 0.00 | 0.00 | 38 | 1010.9 |
| 20260506121134 | 73 | 41 | 3.0 | 7.0 | 0.00 | 0.00 | 0.00 | 38 | 1010.9 |
| 20260506120234 | 72 | 354 | 2.0 | 9.0 | 0.00 | 0.00 | 0.00 | 39 | 1011.1 |
| 20260506115355 | 74 | 283 | 2.0 | 6.0 | 0.00 | 0.00 | 0.00 | 40 | 1011.3 |
| 20260506114434 | 73 | 267 | 2.0 | 4.0 | 0.00 | 0.00 | 0.00 | 42 | 1011.2 |
| 20260506113534 | 72 | 272 | 2.0 | 6.0 | 0.00 | 0.00 | 0.00 | 41 | 1011.3 |
| 20260506112634 | 73 | 259 | 1.0 | 6.0 | 0.00 | 0.00 | 0.00 | 42 | 1011.1 |
| 20260506111734 | 73 | 286 | 1.0 | 4.0 | 0.00 | 0.00 | 0.00 | 44 | 1011.3 |
| 20260506110834 | 72 | 354 | 1.0 | 5.0 | 0.00 | 0.00 | 0.00 | 43 | 1011.4 |
| 20260506105955 | 72 | 357 | 1.0 | 5.0 | 0.00 | 0.00 | 0.00 | 44 | 1011.4 |
| 20260506105034 | 71 | 34 | 1.0 | 5.0 | 0.00 | 0.00 | 0.00 | 45 | 1011.5 |
| 20260506104155 | 70 | 319 | 2.0 | 4.0 | 0.00 | 0.00 | 0.00 | 46 | 1011.6 |
| 20260506103255 | 70 | 12 | 2.0 | 6.0 | 0.00 | 0.00 | 0.00 | 47 | 1011.6 |
| 20260506102335 | 70 | 77 | 1.0 | 7.0 | 0.00 | 0.00 | 0.00 | 48 | 1011.6 |
| 20260506101434 | 69 | 152 | 1.0 | 4.0 | 0.00 | 0.00 | 0.00 | 49 | 1011.7 |
| 20260506100533 | 69 | 122 | 1.0 | 4.0 | 0.00 | 0.00 | 0.00 | 51 | 1011.8 |
| 20260506095633 | 68 | 63 | 2.0 | 6.0 | 0.00 | 0.00 | 0.00 | 52 | 1011.9 |
| 20260506094733 | 68 | 109 | 1.0 | 5.0 | 0.00 | 0.00 | 0.00 | 52 | 1011.9 |
| 20260506093834 | 68 | 142 | 1.0 | 5.0 | 0.00 | 0.00 | 0.00 | 53 | 1011.9 |
| 20260506092934 | 67 | 158 | 1.0 | 5.0 | 0.00 | 0.00 | 0.00 | 54 | 1011.9 |
| 20260506092034 | 67 | 102 | 1.0 | 6.0 | 0.00 | 0.00 | 0.00 | 53 | 1011.9 |
| 20260506091133 | 66 | 114 | 1.0 | 6.0 | 0.00 | 0.00 | 0.00 | 55 | 1011.8 |
| 20260506090255 | 66 | 114 | 1.0 | 3.0 | 0.00 | 0.00 | 0.00 | 55 | 1011.9 |
| 20260506085333 | 65 | 79 | 2.0 | 4.0 | 0.00 | 0.00 | 0.00 | 58 | 1012.0 |
| 20260506084433 | 64 | 65 | 2.0 | 6.0 | 0.00 | 0.00 | 0.00 | 59 | 1012.0 |
| 20260506083555 | 64 | 74 | 2.0 | 6.0 | 0.00 | 0.00 | 0.00 | 58 | 1012.0 |
| 20260506082633 | 63 | 30 | 2.0 | 5.0 | 0.00 | 0.00 | 0.00 | 59 | 1012.0 |
| 20260506081733 | 63 | 346 | 2.0 | 4.0 | 0.00 | 0.00 | 0.00 | 59 | 1012.0 |
| 20260506080833 | 63 | 347 | 2.0 | 4.0 | 0.00 | 0.00 | 0.00 | 61 | 1012.0 |
| 20260506073233 | 61 | 356 | 2.0 | 5.0 | 0.00 | 0.00 | 0.00 | 63 | 1012.2 |
| 20260506072333 | 61 | 21 | 4.0 | 7.0 | 0.00 | 0.00 | 0.00 | 64 | 1012.2 |
| 20260506071433 | 60 | 6 | 4.0 | 9.0 | 0.00 | 0.00 | 0.00 | 65 | 1012.2 |
| 20260506070533 | 60 | 26 | 3.0 | 8.0 | 0.00 | 0.00 | 0.00 | 66 | 1012.1 |
| 20260506062033 | 60 | 3 | 2.0 | 5.0 | 0.00 | 0.00 | 0.00 | 65 | 1012.0 |
| 20260506061154 | 60 | 21 | 2.0 | 6.0 | 0.00 | 0.00 | 0.00 | 66 | 1011.9 |
| 20260506060233 | 59 | 358 | 2.0 | 5.0 | 0.00 | 0.00 | 0.00 | 66 | 1011.9 |
| 20260506050833 | 60 | 339 | 2.0 | 4.0 | 0.00 | 0.00 | 0.00 | 64 | 1011.7 |
| 20260506045033 | 61 | 6 | 1.0 | 5.0 | 0.00 | 0.00 | 0.00 | 63 | 1011.5 |
| 20260506044133 | 61 | 24 | 1.0 | 5.0 | 0.00 | 0.00 | 0.00 | 62 | 1011.6 |
| 20260506043233 | 61 | 58 | 1.0 | 4.0 | 0.00 | 0.00 | 0.00 | 62 | 1011.5 |
| 20260506042333 | 61 | 73 | 1.0 | 4.0 | 0.00 | 0.00 | 0.00 | 62 | 1011.6 |
| 20260506041433 | 61 | 59 | 1.0 | 3.0 | 0.00 | 0.00 | 0.00 | 61 | 1011.6 |
| 20260506040533 | 61 | 41 | 1.0 | 3.0 | 0.00 | 0.00 | 0.00 | 61 | 1011.7 |
| 20260506035653 | 61 | 41 | 1.0 | 4.0 | 0.00 | 0.00 | 0.00 | 61 | 1011.8 |
| 20260506034733 | 61 | 46 | 1.0 | 5.0 | 0.00 | 0.00 | 0.00 | 61 | 1011.8 |